Regional Weather Roundup
Issued by NWS Sterling, VA

Home | Current Version | Previous Version | Graphics & Text | Print | Product List | Glossary On
Versions: 1 2 3 4 5 6 7 8 9 10 11 12 13 14 15 16 17 18 19 20 21 22 23 24 25 26 27 28 29 30 31 32 33 34 35 36 37 38 39 40 41 42 43 44 45 46 47 48 49 50
000
ASUS41 KLWX 272310
RWRLWX

REGIONAL WEATHER ROUNDUP
NATIONAL WEATHER SERVICE BALTIMORE MD/WASHINGTON DC
700 PM EDT THU AUG 27 2015

Note: "FAIR" indicates few or no clouds below 12,000 feet
with no significant weather and/or obstructions to visibility.
 TC=TEMPERATURE CELSIUS

 * =Non NWS site. Station does not report precipitation (e.g. rain,
    snow, etc.), thunder, or fog.

DCZ001-MDZ009-015-VAZ040>042-051-053>054-280000-
WASHINGTON METRO

CITY           SKY/WX    TMP DP  RH WIND       PRES   REMARKS
WASHINGTON NAT PTCLDY    78  54  43 N7        30.09S
DULLES         PTCLDY    76  53  44 N7        30.10R
ANDREWS AFB    PTCLDY    76  55  48 E7        30.08S
FT BELVOIR     PTCLDY    78  55  45 NW3       30.09R
QUANTICO       PTCLDY    79  53  40 N9        30.09
COLLEGE PARK*  MOCLDY    77  54  44 CALM      30.09S
LEESBURG*      PTCLDY    77  59  53 N7        30.11S
MANASSAS*      CLEAR     79  54  41 N5        30.09S
GAITHERSBURG*  PTCLDY    73  55  53 CALM      30.14S

$$

MDZ006>007-011-014-280000-
BALTIMORE METRO

CITY           SKY/WX    TMP DP  RH WIND       PRES   REMARKS
BWI AIRPORT    PTCLDY    75  57  53 CALM      30.09R
MD SCIENCE CTR   N/A     76  55  48 MISG      30.09
MARTIN STATE   PTCLDY    75  59  57 NW6       30.10S
ANNAPOLIS      CLEAR     76  58  53 NE6       30.08S
FORT MEADE*    CLEAR     73  54  49 CALM      30.11S

$$

MDZ012-015-019>023-280000-
MARYLAND EASTERN SHORE

CITY           SKY/WX    TMP DP  RH WIND       PRES   REMARKS
OCEAN CITY     PTCLDY    74  61  63 CALM      30.08S
SALISBURY      PTCLDY    76  57  51 NW3       30.08R
BAY BRIDGE AP*   N/A     73  54  49 NE3       30.09S
CAMBRIDGE*     PTCLDY    77  52  41 N3        30.08S
EASTON*        PTCLDY    77  59  53 N6        30.12S

$$

MDZ017>025-280000-
SOUTHERN MARYLAND

CITY           SKY/WX    TMP DP  RH WIND       PRES   REMARKS
PATUXENT RIVER MOCLDY    74  56  53 N3        30.09R
ST INIGOES     MOCLDY    76  62  62 NE3       30.08S
LEONARDTOWN*   MOCLDY    73  55  53 CALM      30.11S

$$

MDZ003>005-280000-
NORTH CENTRAL MARYLAND

CITY           SKY/WX    TMP DP  RH WIND       PRES   REMARKS
FREDERICK*     MOCLDY    75  57  53 MISG      30.13S
HAGERSTOWN APT CLOUDY    74  53  48 NW5       30.12R
WESTMINSTER*   MOCLDY    72  55  56 CALM      30.12S

$$

MDZ501>502-280000-
WESTERN MARYLAND

CITY           SKY/WX    TMP DP  RH WIND       PRES   REMARKS
OAKLAND*       CLEAR     59  50  72 NW3       30.20S
CUMBERLAND*    PTCLDY    73  52  46 N6        30.16S

$$

VAZ025>031-280000-
SHENANDOAH VALLEY

CITY           SKY/WX    TMP DP  RH WIND       PRES   REMARKS
WINCHESTER*    CLEAR     75  52  43 N5        30.11S
FRONT ROYAL*   CLOUDY    73  55  53 E3        30.10S
LURAY*         MOCLDY    73  52  46 NE5       30.11R
NEW MARKET*    MOCLDY    74  55  51 NE7       30.10R
STAUNTON*      MOCLDY    79  55  43 E7        30.12S
WAYNESBORO*    MOCLDY    76  56  50 SE5       30.12S

$$

WVZ021-048>050-054>055-280000-
EASTERN WEST VIRGINIA PANHANDLE

CITY           SKY/WX    TMP DP  RH WIND       PRES   REMARKS
MARTINSBURG    PTCLDY    74  53  48 NE8       30.11F
PETERSBURG*    CLEAR     74  53  47 CALM      30.13R

$$

VAZ036>039-050-280000-
CENTRAL FOOTHILLS

CITY           SKY/WX    TMP DP  RH WIND       PRES   REMARKS
CHARLOTTESVILL CLEAR     77  58  51 E5        30.09R
CULPEPER*      CLEAR     75  58  53 CALM      30.10S
ORANGE*        MOCLDY    77  57  50 N3        30.11S
GORDONSVILLE*  FAIR      76  60  56 CALM      30.08F
WARRENTON*     FAIR      78  57  49 N5        30.10R

$$

VAZ055>057-280000-
NORTH AND CENTRAL PIEDMONT

CITY           SKY/WX    TMP DP  RH WIND       PRES   REMARKS
FREDERICKSBRG* CLEAR     80  55  42 N5        30.08S
STAFFORD*      CLEAR     76  53  44 N3        30.13S

$$

NCZ024-NYZ072-PAZ021-071-VAZ022-071-280000-
OTHER REGIONAL OBSERVATIONS

CITY           SKY/WX    TMP DP  RH WIND       PRES   REMARKS
NEW YORK CITY  PTCLDY    76  52  43 VRB5      30.09R
PHILADELPHIA   PTCLDY    79  50  36 NW13      30.08S
PITTSBURGH     PTSUNNY   69  55  60 NW5       30.15R
ROANOKE        MOSUNNY   78  56  46 SE9       30.11S
RICHMOND       PTCLDY    76  60  57 E3        30.08S
RALEIGH        MOCLDY    80  60  50 E8        30.07R

$$

ANZ530>537-280000-
MARINE OBSERVATIONS

STATION/POSITION TIME  TEMP    WIND        PRES
                       AIR SEA DIR/SP/G
                 (UTC) (F)     (DEG/KT/KT) (MB)
THOMAS PT LIGHT  2300   75 80   40/  8/ 10 1019.2
BALT KEY BRIDGE  2200   77     320/  5/  6 1018.6R
COVE POINT       2200   76      40/  5/  8 1019.4R
LEWISETTA        2200   77 80   80/  4/  7 1018.4R
SOLOMONS ISLAND  2200      81                N/A
PINEY POINT      2200          100/  4/  7   N/A

$$




USA.gov is the U.S. government's official web portal to all federal, state and local government web resources and services.